contact: severine.martini@mio.osupytheas.fr, dominique.lefevre@mio.osupytheas.fr
Project:EMSO Ligure-ouest http://www.emso-fr.org/EMSO-France
Sensor Microcat Sea-Bird SBE37 SMP,  Serial 57510 
DOI : "https://doi.org/10.17882/97948" 
Title:EMSO Ligure Ouest : Data Bathybot capteur Microcat - deploiement 2023-04-28
Datetime,Profondeur,Latitude,Longitude,Temperature,Conductivite,Pression,Salinite
time,m,degree_north,degree_east,degree_C,S/m,db,PSU 
2023-09-30T00:00:50,2420,42.8014,5.9826,13.2974,4.59900,2453.627,38.4866
2023-09-30T00:03:49,2420,42.8014,5.9826,13.2969,4.59901,2453.604,38.4872
2023-09-30T00:06:49,2420,42.8014,5.9826,13.2974,4.59900,2453.604,38.4867
2023-09-30T00:09:49,2420,42.8014,5.9826,13.2969,4.59903,2453.604,38.4874
2023-09-30T00:12:49,2420,42.8014,5.9826,13.2971,4.59899,2453.582,38.4868
2023-09-30T00:15:49,2420,42.8014,5.9826,13.2969,4.59900,2453.582,38.4872
2023-09-30T00:18:49,2420,42.8014,5.9826,13.2970,4.59900,2453.627,38.4870
2023-09-30T00:21:49,2420,42.8014,5.9826,13.2970,4.59901,2453.627,38.4871
2023-09-30T00:24:49,2420,42.8014,5.9826,13.2968,4.59900,2453.604,38.4871
2023-09-30T00:27:49,2420,42.8014,5.9826,13.2974,4.59900,2453.604,38.4867
2023-09-30T00:30:49,2420,42.8014,5.9826,13.2973,4.59900,2453.582,38.4867
2023-09-30T00:33:49,2420,42.8014,5.9826,13.2968,4.59901,2453.604,38.4873
2023-09-30T00:36:49,2420,42.8014,5.9826,13.2973,4.59901,2453.590,38.4869
2023-09-30T00:39:49,2420,42.8014,5.9826,13.2973,4.59901,2453.604,38.4869
2023-09-30T00:42:49,2420,42.8014,5.9826,13.2968,4.59900,2453.582,38.4872
2023-09-30T00:45:49,2420,42.8014,5.9826,13.2979,4.59900,2453.582,38.4861
2023-09-30T00:48:49,2420,42.8014,5.9826,13.2968,4.59901,2453.574,38.4873
2023-09-30T00:51:49,2420,42.8014,5.9826,13.2975,4.59902,2453.582,38.4867
2023-09-30T00:54:49,2420,42.8014,5.9826,13.2972,4.59900,2453.559,38.4869
2023-09-30T00:57:49,2420,42.8014,5.9826,13.2972,4.59902,2453.582,38.4870
2023-09-30T01:00:49,2420,42.8014,5.9826,13.2977,4.59903,2453.559,38.4866
2023-09-30T01:03:49,2420,42.8014,5.9826,13.2971,4.59900,2453.559,38.4870
2023-09-30T01:06:49,2420,42.8014,5.9826,13.2973,4.59900,2453.582,38.4867
2023-09-30T01:09:49,2420,42.8014,5.9826,13.2970,4.59899,2453.559,38.4870
2023-09-30T01:12:49,2420,42.8014,5.9826,13.2970,4.59903,2453.559,38.4873
2023-09-30T01:15:49,2420,42.8014,5.9826,13.2969,4.59901,2453.551,38.4872
2023-09-30T01:18:49,2420,42.8014,5.9826,13.2974,4.59899,2453.559,38.4866
2023-09-30T01:21:49,2420,42.8014,5.9826,13.2973,4.59900,2453.537,38.4867
2023-09-30T01:24:49,2420,42.8014,5.9826,13.2971,4.59904,2453.559,38.4873
2023-09-30T01:27:49,2420,42.8014,5.9826,13.2970,4.59901,2453.559,38.4872
2023-09-30T01:30:49,2420,42.8014,5.9826,13.2973,4.59899,2453.559,38.4867
2023-09-30T01:33:49,2420,42.8014,5.9826,13.2972,4.59900,2453.537,38.4869
2023-09-30T01:36:49,2420,42.8014,5.9826,13.2972,4.59899,2453.559,38.4868
2023-09-30T01:39:49,2420,42.8014,5.9826,13.2975,4.59900,2453.537,38.4866
2023-09-30T01:42:49,2420,42.8014,5.9826,13.2975,4.59905,2453.559,38.4870
2023-09-30T01:45:49,2420,42.8014,5.9826,13.2972,4.59903,2453.537,38.4871
2023-09-30T01:48:49,2420,42.8014,5.9826,13.2970,4.59900,2453.559,38.4870
2023-09-30T01:51:49,2420,42.8014,5.9826,13.2971,4.59901,2453.522,38.4870
2023-09-30T01:54:49,2420,42.8014,5.9826,13.2968,4.59900,2453.582,38.4872
2023-09-30T01:57:49,2420,42.8014,5.9826,13.2972,4.59899,2453.522,38.4868
2023-09-30T02:00:49,2420,42.8014,5.9826,13.2966,4.59900,2453.559,38.4874
2023-09-30T02:03:49,2420,42.8014,5.9826,13.2970,4.59899,2453.537,38.4870
2023-09-30T02:06:49,2420,42.8014,5.9826,13.2970,4.59900,2453.559,38.4870
2023-09-30T02:09:49,2420,42.8014,5.9826,13.2970,4.59901,2453.559,38.4871
2023-09-30T02:12:49,2420,42.8014,5.9826,13.2970,4.59900,2453.559,38.4871
2023-09-30T02:15:49,2420,42.8014,5.9826,13.2972,4.59901,2453.559,38.4870
2023-09-30T02:18:49,2420,42.8014,5.9826,13.2969,4.59899,2453.514,38.4870
2023-09-30T02:21:49,2420,42.8014,5.9826,13.2974,4.59900,2453.559,38.4866
2023-09-30T02:24:49,2420,42.8014,5.9826,13.2971,4.59900,2453.537,38.4870
2023-09-30T02:27:49,2420,42.8014,5.9826,13.2968,4.59900,2453.537,38.4873
2023-09-30T02:30:49,2420,42.8014,5.9826,13.2971,4.59900,2453.559,38.4870
2023-09-30T02:33:49,2420,42.8014,5.9826,13.2970,4.59900,2453.559,38.4870
2023-09-30T02:36:49,2420,42.8014,5.9826,13.2968,4.59900,2453.537,38.4872
2023-09-30T02:39:49,2420,42.8014,5.9826,13.2970,4.59900,2453.582,38.4871
2023-09-30T02:42:49,2420,42.8014,5.9826,13.2972,4.59901,2453.559,38.4870
2023-09-30T02:45:49,2420,42.8014,5.9826,13.2969,4.59900,2453.551,38.4871
2023-09-30T02:48:49,2420,42.8014,5.9826,13.2971,4.59900,2453.537,38.4870
2023-09-30T02:51:49,2420,42.8014,5.9826,13.2971,4.59900,2453.537,38.4870
2023-09-30T02:54:49,2420,42.8014,5.9826,13.2968,4.59903,2453.582,38.4874
2023-09-30T02:57:49,2420,42.8014,5.9826,13.2970,4.59900,2453.522,38.4871
2023-09-30T03:00:50,2420,42.8014,5.9826,13.2970,4.59901,2453.537,38.4871
2023-09-30T03:03:49,2420,42.8014,5.9826,13.2975,4.59899,2453.537,38.4865
2023-09-30T03:06:49,2420,42.8014,5.9826,13.2974,4.59900,2453.559,38.4866
2023-09-30T03:09:49,2420,42.8014,5.9826,13.2973,4.59900,2453.559,38.4867
2023-09-30T03:12:49,2420,42.8014,5.9826,13.2971,4.59901,2453.522,38.4870
2023-09-30T03:15:49,2420,42.8014,5.9826,13.2970,4.59900,2453.559,38.4870
2023-09-30T03:18:49,2420,42.8014,5.9826,13.2972,4.59901,2453.559,38.4870
2023-09-30T03:21:49,2420,42.8014,5.9826,13.2966,4.59900,2453.559,38.4874
2023-09-30T03:24:49,2420,42.8014,5.9826,13.2975,4.59900,2453.596,38.4866
2023-09-30T03:27:49,2420,42.8014,5.9826,13.2971,4.59901,2453.559,38.4870
2023-09-30T03:30:49,2420,42.8014,5.9826,13.2973,4.59903,2453.559,38.4870
2023-09-30T03:33:49,2420,42.8014,5.9826,13.2968,4.59900,2453.582,38.4872
2023-09-30T03:36:49,2420,42.8014,5.9826,13.2973,4.59902,2453.582,38.4869
2023-09-30T03:39:49,2420,42.8014,5.9826,13.2972,4.59901,2453.567,38.4870
2023-09-30T03:42:49,2420,42.8014,5.9826,13.2973,4.59901,2453.604,38.4868
2023-09-30T03:45:49,2420,42.8014,5.9826,13.2972,4.59901,2453.582,38.4870
2023-09-30T03:48:49,2420,42.8014,5.9826,13.2973,4.59901,2453.559,38.4869
2023-09-30T03:51:49,2420,42.8014,5.9826,13.2970,4.59900,2453.582,38.4871
2023-09-30T03:54:49,2420,42.8014,5.9826,13.2968,4.59901,2453.559,38.4873
2023-09-30T03:57:49,2420,42.8014,5.9826,13.2974,4.59905,2453.582,38.4871
2023-09-30T04:00:49,2420,42.8014,5.9826,13.2971,4.59901,2453.604,38.4870
2023-09-30T04:03:49,2420,42.8014,5.9826,13.2970,4.59902,2453.567,38.4872
2023-09-30T04:06:49,2420,42.8014,5.9826,13.2971,4.59901,2453.604,38.4870
2023-09-30T04:09:49,2420,42.8014,5.9826,13.2969,4.59902,2453.604,38.4873
2023-09-30T04:12:49,2420,42.8014,5.9826,13.2969,4.59900,2453.604,38.4871
2023-09-30T04:15:49,2420,42.8014,5.9826,13.2975,4.59900,2453.627,38.4866
2023-09-30T04:18:49,2420,42.8014,5.9826,13.2970,4.59903,2453.649,38.4872
2023-09-30T04:21:49,2420,42.8014,5.9826,13.2972,4.59900,2453.627,38.4869
2023-09-30T04:24:49,2420,42.8014,5.9826,13.2972,4.59900,2453.604,38.4869
2023-09-30T04:27:49,2420,42.8014,5.9826,13.2974,4.59900,2453.664,38.4867
2023-09-30T04:30:49,2420,42.8014,5.9826,13.2972,4.59902,2453.627,38.4870
2023-09-30T04:33:49,2420,42.8014,5.9826,13.2970,4.59902,2453.627,38.4872
2023-09-30T04:36:49,2420,42.8014,5.9826,13.2966,4.59903,2453.649,38.4877
2023-09-30T04:39:49,2420,42.8014,5.9826,13.2974,4.59901,2453.627,38.4867
2023-09-30T04:42:49,2420,42.8014,5.9826,13.2971,4.59901,2453.627,38.4870
2023-09-30T04:45:49,2420,42.8014,5.9826,13.2971,4.59904,2453.649,38.4873
2023-09-30T04:48:49,2420,42.8014,5.9826,13.2976,4.59904,2453.649,38.4868
2023-09-30T04:51:49,2420,42.8014,5.9826,13.2973,4.59906,2453.649,38.4873
2023-09-30T04:54:49,2420,42.8014,5.9826,13.2970,4.59900,2453.672,38.4869
2023-09-30T04:57:49,2420,42.8014,5.9826,13.2975,4.59903,2453.635,38.4868
2023-09-30T05:00:49,2420,42.8014,5.9826,13.2973,4.59903,2453.649,38.4870
2023-09-30T05:03:49,2420,42.8014,5.9826,13.2974,4.59900,2453.649,38.4867
2023-09-30T05:06:49,2420,42.8014,5.9826,13.2970,4.59904,2453.695,38.4874
2023-09-30T05:09:49,2420,42.8014,5.9826,13.2973,4.59903,2453.649,38.4870
2023-09-30T05:12:49,2420,42.8014,5.9826,13.2974,4.59900,2453.695,38.4866
2023-09-30T05:15:49,2420,42.8014,5.9826,13.2970,4.59905,2453.695,38.4874
2023-09-30T05:18:49,2420,42.8014,5.9826,13.2970,4.59903,2453.695,38.4873
2023-09-30T05:21:49,2420,42.8014,5.9826,13.2972,4.59902,2453.687,38.4870
2023-09-30T05:24:49,2420,42.8014,5.9826,13.2972,4.59908,2453.695,38.4876
2023-09-30T05:27:49,2420,42.8014,5.9826,13.2975,4.59906,2453.709,38.4871
2023-09-30T05:30:49,2420,42.8014,5.9826,13.2973,4.59905,2453.717,38.4872
2023-09-30T05:33:49,2420,42.8014,5.9826,13.2972,4.59906,2453.695,38.4873
2023-09-30T05:36:49,2420,42.8014,5.9826,13.2974,4.59901,2453.717,38.4867
2023-09-30T05:39:49,2420,42.8014,5.9826,13.2972,4.59905,2453.695,38.4873
2023-09-30T05:42:49,2420,42.8014,5.9826,13.2975,4.59906,2453.680,38.4871
2023-09-30T05:45:49,2420,42.8014,5.9826,13.2973,4.59906,2453.695,38.4873
2023-09-30T05:48:49,2420,42.8014,5.9826,13.2973,4.59913,2453.695,38.4879
2023-09-30T05:51:49,2420,42.8014,5.9826,13.2973,4.59903,2453.732,38.4870
2023-09-30T05:54:49,2420,42.8014,5.9826,13.2969,4.59906,2453.695,38.4876
2023-09-30T05:57:49,2420,42.8014,5.9826,13.2975,4.59906,2453.717,38.4870
2023-09-30T06:00:49,2420,42.8014,5.9826,13.2974,4.59903,2453.717,38.4868
2023-09-30T06:03:49,2420,42.8014,5.9826,13.2970,4.59903,2453.702,38.4873
2023-09-30T06:06:49,2420,42.8014,5.9826,13.2973,4.59903,2453.740,38.4869
2023-09-30T06:09:49,2420,42.8014,5.9826,13.2973,4.59906,2453.717,38.4873
2023-09-30T06:12:49,2420,42.8014,5.9826,13.2975,4.59911,2453.717,38.4875
2023-09-30T06:15:49,2420,42.8014,5.9826,13.2974,4.59905,2453.702,38.4871
2023-09-30T06:18:49,2420,42.8014,5.9826,13.2974,4.59902,2453.740,38.4868
2023-09-30T06:21:49,2420,42.8014,5.9826,13.2970,4.59904,2453.740,38.4873
2023-09-30T06:24:49,2420,42.8014,5.9826,13.2968,4.59906,2453.717,38.4877
2023-09-30T06:27:49,2420,42.8014,5.9826,13.2972,4.59909,2453.740,38.4876
2023-09-30T06:30:50,2420,42.8014,5.9826,13.2973,4.59905,2453.725,38.4872
2023-09-30T06:33:49,2420,42.8014,5.9826,13.2973,4.59905,2453.740,38.4871
2023-09-30T06:36:49,2420,42.8014,5.9826,13.2978,4.59909,2453.762,38.4870
2023-09-30T06:39:49,2420,42.8014,5.9826,13.2970,4.59906,2453.725,38.4875
2023-09-30T06:42:49,2420,42.8014,5.9826,13.2973,4.59903,2453.800,38.4869
2023-09-30T06:45:49,2420,42.8014,5.9826,13.2972,4.59906,2453.740,38.4874
2023-09-30T06:48:49,2420,42.8014,5.9826,13.2971,4.59910,2453.762,38.4878
2023-09-30T06:51:49,2420,42.8014,5.9826,13.2973,4.59908,2453.762,38.4874
2023-09-30T06:54:49,2420,42.8014,5.9826,13.2968,4.59907,2453.740,38.4878
2023-09-30T06:57:49,2420,42.8014,5.9826,13.2975,4.59906,2453.785,38.4870
2023-09-30T07:00:49,2420,42.8014,5.9826,13.2974,4.59903,2453.762,38.4868
2023-09-30T07:03:49,2420,42.8014,5.9826,13.2973,4.59903,2453.762,38.4870
2023-09-30T07:06:49,2420,42.8014,5.9826,13.2975,4.59905,2453.732,38.4869
2023-09-30T07:09:49,2420,42.8014,5.9826,13.2976,4.59908,2453.725,38.4871
2023-09-30T07:12:49,2420,42.8014,5.9826,13.2979,4.59910,2453.777,38.4870
2023-09-30T07:15:49,2420,42.8014,5.9826,13.2975,4.59914,2453.762,38.4877
2023-09-30T07:18:49,2420,42.8014,5.9826,13.2981,4.59906,2453.762,38.4865
2023-09-30T07:21:49,2420,42.8014,5.9826,13.2974,4.59909,2453.762,38.4874
2023-09-30T07:24:49,2420,42.8014,5.9826,13.2975,4.59917,2453.762,38.4881
2023-09-30T07:27:49,2420,42.8014,5.9826,13.2982,4.59937,2453.762,38.4893
2023-09-30T07:30:49,2420,42.8014,5.9826,13.2981,4.59916,2453.762,38.4874
2023-09-30T07:33:49,2420,42.8014,5.9826,13.3015,4.59936,2453.740,38.4859
2023-09-30T07:36:49,2420,42.8014,5.9826,13.3010,4.59951,2453.748,38.4879
2023-09-30T07:39:49,2420,42.8014,5.9826,13.3016,4.59959,2453.725,38.4880
2023-09-30T07:42:49,2420,42.8014,5.9826,13.2993,4.59911,2453.748,38.4857
2023-09-30T07:45:49,2420,42.8014,5.9826,13.2988,4.59945,2453.762,38.4894
2023-09-30T07:48:49,2420,42.8014,5.9826,13.3008,4.59937,2453.762,38.4867
2023-09-30T07:51:49,2420,42.8014,5.9826,13.3008,4.59957,2453.762,38.4886
2023-09-30T07:54:49,2420,42.8014,5.9826,13.3014,4.60002,2453.748,38.4923
2023-09-30T07:57:49,2420,42.8014,5.9826,13.3016,4.59945,2453.762,38.4866
2023-09-30T08:00:49,2420,42.8014,5.9826,13.3070,4.59956,2453.762,38.4823
2023-09-30T08:03:49,2420,42.8014,5.9826,13.3033,4.59998,2453.680,38.4900
2023-09-30T08:06:49,2420,42.8014,5.9826,13.3038,4.59939,2453.740,38.4839
2023-09-30T08:09:49,2420,42.8014,5.9826,13.3009,4.60025,2453.777,38.4949
2023-09-30T08:12:49,2420,42.8014,5.9826,13.3031,4.59986,2453.762,38.4890
2023-09-30T08:15:49,2420,42.8014,5.9826,13.3040,4.59951,2453.762,38.4848
2023-09-30T08:18:49,2420,42.8014,5.9826,13.2998,4.59946,2453.725,38.4885
2023-09-30T08:21:49,2420,42.8014,5.9826,13.3062,4.59927,2453.740,38.4804
2023-09-30T08:24:49,2420,42.8014,5.9826,13.3063,4.60003,2453.740,38.4874
2023-09-30T08:27:49,2420,42.8014,5.9826,13.2997,4.59948,2453.762,38.4889
2023-09-30T08:30:50,2420,42.8014,5.9826,13.3024,4.59933,2453.740,38.4847
2023-09-30T08:33:49,2420,42.8014,5.9826,13.3046,4.59951,2453.754,38.4842
2023-09-30T08:36:49,2420,42.8014,5.9826,13.3044,4.60112,2453.762,38.4996
2023-09-30T08:39:49,2420,42.8014,5.9826,13.3022,4.59995,2453.740,38.4908
2023-09-30T08:42:49,2420,42.8014,5.9826,13.3023,4.59939,2453.762,38.4853
2023-09-30T08:45:49,2420,42.8014,5.9826,13.3029,4.59928,2453.754,38.4837
2023-09-30T08:48:49,2420,42.8014,5.9826,13.3017,4.59934,2453.740,38.4855
2023-09-30T08:51:49,2420,42.8014,5.9826,13.3057,4.60018,2453.740,38.4895
2023-09-30T08:54:49,2420,42.8014,5.9826,13.2998,4.60069,2453.717,38.5001
2023-09-30T08:57:49,2420,42.8014,5.9826,13.3030,4.59932,2453.740,38.4840
2023-09-30T09:00:49,2420,42.8014,5.9826,13.3167,4.60042,2453.740,38.4808
2023-09-30T09:03:49,2420,42.8014,5.9826,13.3016,4.59951,2453.762,38.4872
2023-09-30T09:06:49,2420,42.8014,5.9826,13.3015,4.59951,2453.717,38.4874
2023-09-30T09:09:49,2420,42.8014,5.9826,13.2988,4.60016,2453.717,38.4962
2023-09-30T09:12:49,2420,42.8014,5.9826,13.3011,4.59980,2453.695,38.4905
2023-09-30T09:15:49,2420,42.8014,5.9826,13.2997,4.59931,2453.695,38.4873
2023-09-30T09:18:49,2420,42.8014,5.9826,13.3060,4.60026,2453.717,38.4900
2023-09-30T09:21:49,2420,42.8014,5.9826,13.3038,4.59951,2453.732,38.4850
2023-09-30T09:24:49,2420,42.8014,5.9826,13.2996,4.59942,2453.717,38.4884
2023-09-30T09:27:49,2420,42.8014,5.9826,13.3032,4.59934,2453.717,38.4841
2023-09-30T09:30:49,2420,42.8014,5.9826,13.3010,4.60003,2453.740,38.4928
2023-09-30T09:33:49,2420,42.8014,5.9826,13.3093,4.59959,2453.695,38.4803
2023-09-30T09:36:49,2420,42.8014,5.9826,13.3054,4.59944,2453.695,38.4828
2023-09-30T09:39:49,2420,42.8014,5.9826,13.3010,4.59941,2453.740,38.4869
2023-09-30T09:42:49,2420,42.8014,5.9826,13.2990,4.59958,2453.717,38.4905
2023-09-30T09:45:49,2420,42.8014,5.9826,13.2978,4.59948,2453.717,38.4908
2023-09-30T09:48:49,2420,42.8014,5.9826,13.2976,4.59959,2453.680,38.4919
2023-09-30T09:51:49,2420,42.8014,5.9826,13.3004,4.59962,2453.717,38.4895
2023-09-30T09:54:49,2420,42.8014,5.9826,13.3023,4.59989,2453.687,38.4901
2023-09-30T09:57:49,2420,42.8014,5.9826,13.3026,4.59954,2453.717,38.4866
2023-09-30T10:00:49,2420,42.8014,5.9826,13.3019,4.59949,2453.695,38.4868
2023-09-30T10:03:49,2420,42.8014,5.9826,13.3002,4.59928,2453.657,38.4865
2023-09-30T10:06:49,2420,42.8014,5.9826,13.3031,4.59932,2453.695,38.4839
2023-09-30T10:09:49,2420,42.8014,5.9826,13.3012,4.59945,2453.717,38.4870
2023-09-30T10:12:49,2420,42.8014,5.9826,13.3045,4.59954,2453.672,38.4846
2023-09-30T10:15:49,2420,42.8014,5.9826,13.3056,4.59936,2453.695,38.4819
2023-09-30T10:18:49,2420,42.8014,5.9826,13.2987,4.59917,2453.635,38.4869
2023-09-30T10:21:49,2420,42.8014,5.9826,13.3021,4.59949,2453.672,38.4866
2023-09-30T10:24:49,2420,42.8014,5.9826,13.3015,4.59926,2453.672,38.4850
2023-09-30T10:27:49,2420,42.8014,5.9826,13.3019,4.59922,2453.672,38.4842
2023-09-30T10:30:49,2420,42.8014,5.9826,13.3094,4.59931,2453.664,38.4776
2023-09-30T10:33:49,2420,42.8014,5.9826,13.3057,4.59927,2453.672,38.4809
2023-09-30T10:36:49,2420,42.8014,5.9826,13.3000,4.60182,2453.672,38.5107
2023-09-30T10:39:49,2420,42.8014,5.9826,13.3024,4.59976,2453.664,38.4888
2023-09-30T10:42:49,2420,42.8014,5.9826,13.3072,4.59951,2453.664,38.4816
2023-09-30T10:45:49,2420,42.8014,5.9826,13.3038,4.59937,2453.649,38.4837
2023-09-30T10:48:49,2420,42.8014,5.9826,13.3006,4.59937,2453.627,38.4870
2023-09-30T10:51:49,2420,42.8014,5.9826,13.3027,4.59917,2453.672,38.4829
2023-09-30T10:54:49,2420,42.8014,5.9826,13.2997,4.60009,2453.627,38.4946
2023-09-30T10:57:49,2420,42.8014,5.9826,13.3041,4.59948,2453.649,38.4846
2023-09-30T11:00:49,2420,42.8014,5.9826,13.3010,4.59936,2453.649,38.4864
2023-09-30T11:03:49,2420,42.8014,5.9826,13.3092,4.59946,2453.672,38.4792
2023-09-30T11:06:49,2420,42.8014,5.9826,13.2996,4.59914,2453.627,38.4858
2023-09-30T11:09:49,2420,42.8014,5.9826,13.2975,4.59912,2453.649,38.4877
2023-09-30T11:12:49,2420,42.8014,5.9826,13.2975,4.59910,2453.635,38.4875
2023-09-30T11:15:49,2420,42.8014,5.9826,13.2972,4.59904,2453.672,38.4872
2023-09-30T11:18:49,2420,42.8014,5.9826,13.2972,4.59908,2453.627,38.4876
2023-09-30T11:21:49,2420,42.8014,5.9826,13.2974,4.59909,2453.649,38.4874
2023-09-30T11:24:49,2420,42.8014,5.9826,13.2971,4.59906,2453.641,38.4875
2023-09-30T11:27:49,2420,42.8014,5.9826,13.2973,4.59903,2453.604,38.4869
2023-09-30T11:30:50,2420,42.8014,5.9826,13.2972,4.59911,2453.604,38.4879
2023-09-30T11:33:49,2420,42.8014,5.9826,13.2973,4.59904,2453.672,38.4871
2023-09-30T11:36:49,2420,42.8014,5.9826,13.2974,4.59908,2453.604,38.4874
2023-09-30T11:39:49,2420,42.8014,5.9826,13.2970,4.59911,2453.627,38.4881
2023-09-30T11:42:49,2420,42.8014,5.9826,13.2973,4.59906,2453.604,38.4874
2023-09-30T11:45:49,2420,42.8014,5.9826,13.2972,4.59914,2453.627,38.4882
2023-09-30T11:48:49,2420,42.8014,5.9826,13.2971,4.59908,2453.627,38.4877
2023-09-30T11:51:49,2420,42.8014,5.9826,13.2974,4.59906,2453.604,38.4872
2023-09-30T11:54:49,2420,42.8014,5.9826,13.2973,4.59904,2453.604,38.4871
2023-09-30T11:57:49,2420,42.8014,5.9826,13.2972,4.59911,2453.604,38.4879
2023-09-30T12:00:49,2420,42.8014,5.9826,13.2970,4.59908,2453.582,38.4879
2023-09-30T12:03:49,2420,42.8014,5.9826,13.2973,4.59905,2453.604,38.4872
2023-09-30T12:06:49,2420,42.8014,5.9826,13.2974,4.59911,2453.604,38.4877
2023-09-30T12:09:49,2420,42.8014,5.9826,13.2973,4.59911,2453.590,38.4877
2023-09-30T12:12:49,2420,42.8014,5.9826,13.2970,4.59914,2453.590,38.4883
2023-09-30T12:15:49,2420,42.8014,5.9826,13.2973,4.59902,2453.582,38.4869
2023-09-30T12:18:49,2420,42.8014,5.9826,13.2972,4.59907,2453.590,38.4875
2023-09-30T12:21:49,2420,42.8014,5.9826,13.2969,4.59908,2453.559,38.4879
2023-09-30T12:24:49,2420,42.8014,5.9826,13.2975,4.59904,2453.582,38.4870
2023-09-30T12:27:49,2420,42.8014,5.9826,13.2974,4.59910,2453.604,38.4876
2023-09-30T12:30:49,2420,42.8014,5.9826,13.2973,4.59912,2453.582,38.4878
2023-09-30T12:33:49,2420,42.8014,5.9826,13.2971,4.59918,2453.567,38.4886
2023-09-30T12:36:49,2420,42.8014,5.9826,13.2975,4.59908,2453.582,38.4873
2023-09-30T12:39:49,2420,42.8014,5.9826,13.2969,4.59907,2453.559,38.4878
2023-09-30T12:42:49,2420,42.8014,5.9826,13.2968,4.59908,2453.582,38.4881
2023-09-30T12:45:49,2420,42.8014,5.9826,13.2972,4.59912,2453.582,38.4880
2023-09-30T12:48:49,2420,42.8014,5.9826,13.2970,4.59909,2453.544,38.4879
2023-09-30T12:51:49,2420,42.8014,5.9826,13.2973,4.59905,2453.582,38.4872
2023-09-30T12:54:49,2420,42.8014,5.9826,13.2970,4.59906,2453.559,38.4877
2023-09-30T12:57:49,2420,42.8014,5.9826,13.2970,4.59906,2453.582,38.4876
2023-09-30T13:00:49,2420,42.8014,5.9826,13.2974,4.59906,2453.559,38.4872
2023-09-30T13:03:49,2420,42.8014,5.9826,13.2973,4.59908,2453.537,38.4875
2023-09-30T13:06:49,2420,42.8014,5.9826,13.2979,4.59908,2453.559,38.4869
2023-09-30T13:09:49,2420,42.8014,5.9826,13.2973,4.59908,2453.559,38.4875
2023-09-30T13:12:49,2420,42.8014,5.9826,13.2973,4.59906,2453.522,38.4874
2023-09-30T13:15:49,2420,42.8014,5.9826,13.2971,4.59906,2453.537,38.4875
2023-09-30T13:18:49,2420,42.8014,5.9826,13.2970,4.59905,2453.522,38.4876
2023-09-30T13:21:49,2420,42.8014,5.9826,13.2973,4.59901,2453.596,38.4868
2023-09-30T13:24:49,2420,42.8014,5.9826,13.2973,4.59902,2453.537,38.4870
2023-09-30T13:27:49,2420,42.8014,5.9826,13.2976,4.59902,2453.537,38.4866
2023-09-30T13:30:49,2420,42.8014,5.9826,13.2971,4.59902,2453.537,38.4871
2023-09-30T13:33:49,2420,42.8014,5.9826,13.2974,4.59901,2453.537,38.4868
2023-09-30T13:36:49,2420,42.8014,5.9826,13.2969,4.59906,2453.514,38.4877
2023-09-30T13:39:49,2420,42.8014,5.9826,13.2974,4.59903,2453.551,38.4869
2023-09-30T13:42:49,2420,42.8014,5.9826,13.2974,4.59906,2453.537,38.4872
2023-09-30T13:45:49,2420,42.8014,5.9826,13.2973,4.59905,2453.559,38.4872
2023-09-30T13:48:49,2420,42.8014,5.9826,13.2973,4.59901,2453.537,38.4868
2023-09-30T13:51:49,2420,42.8014,5.9826,13.2973,4.59900,2453.499,38.4868
2023-09-30T13:54:49,2420,42.8014,5.9826,13.2975,4.59904,2453.551,38.4869
2023-09-30T13:57:49,2420,42.8014,5.9826,13.2973,4.59906,2453.514,38.4873
2023-09-30T14:00:49,2420,42.8014,5.9826,13.2969,4.59902,2453.537,38.4873
2023-09-30T14:03:49,2420,42.8014,5.9826,13.2975,4.59902,2453.537,38.4867
2023-09-30T14:06:49,2420,42.8014,5.9826,13.2973,4.59902,2453.514,38.4870
2023-09-30T14:09:49,2420,42.8014,5.9826,13.2978,4.59900,2453.514,38.4863
2023-09-30T14:12:49,2420,42.8014,5.9826,13.2972,4.59902,2453.514,38.4871
2023-09-30T14:15:49,2420,42.8014,5.9826,13.2976,4.59903,2453.559,38.4867
2023-09-30T14:18:49,2420,42.8014,5.9826,13.2973,4.59905,2453.499,38.4872
2023-09-30T14:21:49,2420,42.8014,5.9826,13.2976,4.59905,2453.514,38.4869
2023-09-30T14:24:49,2420,42.8014,5.9826,13.2973,4.59903,2453.537,38.4870
2023-09-30T14:27:49,2420,42.8014,5.9826,13.2970,4.59903,2453.537,38.4874
2023-09-30T14:30:50,2420,42.8014,5.9826,13.2970,4.59902,2453.537,38.4873
2023-09-30T14:33:49,2420,42.8014,5.9826,13.2975,4.59902,2453.551,38.4868
2023-09-30T14:36:49,2420,42.8014,5.9826,13.2973,4.59902,2453.559,38.4869
2023-09-30T14:39:49,2420,42.8014,5.9826,13.2973,4.59907,2453.537,38.4874
2023-09-30T14:42:49,2420,42.8014,5.9826,13.2970,4.59902,2453.559,38.4872
2023-09-30T14:45:49,2420,42.8014,5.9826,13.2975,4.59903,2453.522,38.4869
2023-09-30T14:48:49,2420,42.8014,5.9826,13.2975,4.59906,2453.537,38.4871
2023-09-30T14:51:49,2420,42.8014,5.9826,13.2971,4.59905,2453.537,38.4874
2023-09-30T14:54:49,2420,42.8014,5.9826,13.2973,4.59907,2453.522,38.4874
2023-09-30T14:57:49,2420,42.8014,5.9826,13.2976,4.59904,2453.574,38.4868
2023-09-30T15:00:50,2420,42.8014,5.9826,13.2970,4.59904,2453.514,38.4875
2023-09-30T15:03:49,2420,42.8014,5.9826,13.2977,4.59905,2453.559,38.4868
2023-09-30T15:06:49,2420,42.8014,5.9826,13.2973,4.59908,2453.528,38.4875
2023-09-30T15:09:49,2420,42.8014,5.9826,13.2973,4.59900,2453.574,38.4867
2023-09-30T15:12:49,2420,42.8014,5.9826,13.2973,4.59910,2453.537,38.4877
2023-09-30T15:15:49,2420,42.8014,5.9826,13.2974,4.59908,2453.559,38.4874
2023-09-30T15:18:49,2420,42.8014,5.9826,13.2974,4.59904,2453.537,38.4870
2023-09-30T15:21:49,2420,42.8014,5.9826,13.2972,4.59905,2453.559,38.4873
2023-09-30T15:24:49,2420,42.8014,5.9826,13.2976,4.59908,2453.514,38.4872
2023-09-30T15:27:49,2420,42.8014,5.9826,13.2976,4.59907,2453.537,38.4871
2023-09-30T15:30:49,2420,42.8014,5.9826,13.2973,4.59906,2453.559,38.4874
2023-09-30T15:33:49,2420,42.8014,5.9826,13.2975,4.59908,2453.559,38.4873
2023-09-30T15:36:49,2420,42.8014,5.9826,13.2977,4.59904,2453.582,38.4867
2023-09-30T15:39:49,2420,42.8014,5.9826,13.2975,4.59902,2453.559,38.4867
2023-09-30T15:42:49,2420,42.8014,5.9826,13.2975,4.59901,2453.559,38.4867
2023-09-30T15:45:49,2420,42.8014,5.9826,13.2973,4.59908,2453.559,38.4875
2023-09-30T15:48:49,2420,42.8014,5.9826,13.2974,4.59903,2453.582,38.4870
2023-09-30T15:51:49,2420,42.8014,5.9826,13.2974,4.59907,2453.582,38.4873
2023-09-30T15:54:49,2420,42.8014,5.9826,13.2970,4.59906,2453.559,38.4875
2023-09-30T15:57:49,2420,42.8014,5.9826,13.2974,4.59902,2453.596,38.4868
2023-09-30T16:00:50,2420,42.8014,5.9826,13.2975,4.59906,2453.582,38.4870
2023-09-30T16:03:49,2420,42.8014,5.9826,13.2973,4.59906,2453.604,38.4873